Location: Godiavel Galaoual
(15.2485°N, 12.6604°W)
Time: 13:52:45
(UTC+00:00)

NOAA 11 - Pass Details

Date: 27 February 2020
Orbit: 833 x 849 km, 98.4° (Epoch: 30 March)

Event Time Altitude Azimuth Distance (km) Brightness Sun altitude
Rises 19:33:47 0° 163° (SSE) 3,387 7.2 -9.5°
Reaches altitude 10° 19:36:09 10° 161° (SSE) 2,451 6.5 -10.0°
Maximum altitude 19:41:34 72° 77° (ENE) 880 4.1 -11.3°
Drops below altitude 10° 19:46:58 10° 354° (N) 2,444 6.6 -12.6°
Sets 19:49:19 0° 352° (N) 3,376 7.4 -13.2°
